Location: Castiglione Fibocchi
(43.5333°N, 11.7667°E)
Time: 13:51:36
(UTC+00:00)

Cosmos 1758 Rocket - Pass Details

Date: 15 August 2020
Orbit: 603 x 635 km, 82.5° (Epoch: 25 September)

Event Time Altitude Azimuth Distance (km) Brightness Sun altitude
Rises 02:30:09 0° 345° (NNW) 2,868 7.3 -17.7°
Reaches altitude 10° 02:32:25 10° 340° (NNW) 1,962 6.4 -17.3°
Maximum altitude 02:36:34 46° 267° (W) 819 3.8 -16.8°
Enters shadow 02:38:15 30° 214° (SW) 1,093 4.3 -16.5°
